| time (UTC) | temp C | wind direction | speed KPH | gust KPH | rain 1hr cm | rain 24hr cm | rain mn cm | humidity % | barometer mb |
| 20260503005621 | 6 | 0 | 0.0 | 0.0 | 0.00 | 0.00 | 0.00 | 46 | 1014.3 |
| 20260503005051 | 7 | 0 | 0.0 | 0.0 | 0.00 | 0.00 | 0.00 | 46 | 1014.3 |
| 20260503004551 | 7 | 0 | 0.0 | 0.0 | 0.00 | 0.00 | 0.00 | 44 | 1014.3 |
| 20260503004051 | 7 | 0 | 0.0 | 0.0 | 0.00 | 0.00 | 0.00 | 42 | 1014.4 |
| 20260503003551 | 7 | 0 | 0.0 | 1.6 | 0.00 | 0.00 | 0.00 | 40 | 1014.4 |
| 20260503003021 | 8 | 0 | 0.0 | 1.6 | 0.00 | 0.00 | 0.00 | 39 | 1014.3 |
| 20260503002522 | 8 | 0 | 0.0 | 1.6 | 0.00 | 0.00 | 0.00 | 39 | 1014.4 |
| 20260503001951 | 8 | 0 | 0.0 | 3.2 | 0.00 | 0.00 | 0.00 | 38 | 1014.5 |
| 20260503001450 | 8 | 0 | 0.0 | 3.2 | 0.00 | 0.00 | 0.00 | 38 | 1014.5 |
| 20260503000920 | 8 | 0 | 0.0 | 3.2 | 0.00 | 0.00 | 0.00 | 38 | 1014.5 |
| 20260503000422 | 8 | 0 | 0.0 | 3.2 | 0.00 | 0.00 | 0.00 | 38 | 1014.5 |
| 20260502235850 | 8 | 0 | 0.0 | 3.2 | 0.00 | 0.00 | 0.00 | 37 | 1014.6 |
| 20260502235350 | 9 | 0 | 0.0 | 3.2 | 0.00 | 0.00 | 0.00 | 36 | 1014.6 |
| 20260502234850 | 9 | 68 | 1.6 | 3.2 | 0.00 | 0.00 | 0.00 | 36 | 1014.7 |
| 20260502234320 | 10 | 68 | 1.6 | 3.2 | 0.00 | 0.00 | 0.00 | 35 | 1014.8 |
| 20260502233820 | 10 | 45 | 1.6 | 4.8 | 0.00 | 0.00 | 0.00 | 36 | 1014.8 |
| 20260502233320 | 10 | 45 | 1.6 | 4.8 | 0.00 | 0.00 | 0.00 | 34 | 1014.8 |
| 20260502232749 | 10 | 45 | 1.6 | 3.2 | 0.00 | 0.00 | 0.00 | 33 | 1014.9 |
| 20260502232249 | 11 | 45 | 1.6 | 6.4 | 0.00 | 0.00 | 0.00 | 34 | 1015.0 |
| 20260502231749 | 11 | 45 | 1.6 | 6.4 | 0.00 | 0.00 | 0.00 | 33 | 1015.0 |
| 20260502231219 | 11 | 68 | 1.6 | 4.8 | 0.00 | 0.00 | 0.00 | 34 | 1015.0 |
| 20260502230719 | 11 | 45 | 1.6 | 4.8 | 0.00 | 0.00 | 0.00 | 35 | 1015.1 |
| 20260502230149 | 10 | 22 | 1.6 | 4.8 | 0.00 | 0.00 | 0.00 | 33 | 1015.1 |
| 20260502225649 | 10 | 45 | 1.6 | 6.4 | 0.00 | 0.00 | 0.00 | 32 | 1015.2 |
| 20260502225149 | 11 | 45 | 1.6 | 4.8 | 0.00 | 0.00 | 0.00 | 33 | 1015.3 |
| 20260502224618 | 11 | 45 | 1.6 | 6.4 | 0.00 | 0.00 | 0.00 | 33 | 1015.3 |
| 20260502224049 | 11 | 135 | 1.6 | 4.8 | 0.00 | 0.00 | 0.00 | 33 | 1015.4 |
| 20260502223548 | 10 | 45 | 3.2 | 8.0 | 0.00 | 0.00 | 0.00 | 33 | 1015.3 |
| 20260502223018 | 11 | 22 | 1.6 | 4.8 | 0.00 | 0.00 | 0.00 | 36 | 1015.4 |
| 20260502222518 | 10 | 68 | 3.2 | 8.0 | 0.00 | 0.00 | 0.00 | 33 | 1015.5 |
| 20260502221948 | 10 | 45 | 4.8 | 9.7 | 0.00 | 0.00 | 0.00 | 32 | 1015.5 |
| 20260502221418 | 11 | 68 | 3.2 | 6.4 | 0.00 | 0.00 | 0.00 | 33 | 1015.5 |
| 20260502220918 | 11 | 45 | 3.2 | 8.0 | 0.00 | 0.00 | 0.00 | 34 | 1015.5 |
| 20260502220348 | 11 | 68 | 3.2 | 9.7 | 0.00 | 0.00 | 0.00 | 33 | 1015.5 |
| 20260502215318 | 11 | 22 | 1.6 | 6.4 | 0.00 | 0.00 | 0.00 | 32 | 1015.7 |
| 20260502214747 | 11 | 270 | 1.6 | 9.7 | 0.00 | 0.00 | 0.00 | 35 | 1015.6 |
| 20260502214247 | 11 | 45 | 1.6 | 11.3 | 0.00 | 0.00 | 0.00 | 33 | 1015.6 |
| 20260502213717 | 11 | 292 | 3.2 | 9.7 | 0.00 | 0.00 | 0.00 | 34 | 1015.7 |
| 20260502213147 | 11 | 270 | 3.2 | 6.4 | 0.00 | 0.00 | 0.00 | 32 | 1015.7 |
| 20260502212617 | 11 | 0 | 3.2 | 9.7 | 0.00 | 0.00 | 0.00 | 35 | 1015.8 |
| 20260502212117 | 11 | 292 | 3.2 | 8.0 | 0.00 | 0.00 | 0.00 | 33 | 1015.8 |
| 20260502211547 | 11 | 0 | 1.6 | 6.4 | 0.00 | 0.00 | 0.00 | 34 | 1015.8 |
| 20260502211047 | 11 | 292 | 1.6 | 8.0 | 0.00 | 0.00 | 0.00 | 32 | 1015.8 |
| 20260502210547 | 11 | 68 | 1.6 | 6.4 | 0.00 | 0.00 | 0.00 | 33 | 1015.8 |
| 20260502210019 | 11 | 68 | 3.2 | 8.0 | 0.00 | 0.00 | 0.00 | 32 | 1016.1 |
| 20260502205516 | 10 | 270 | 4.8 | 9.7 | 0.00 | 0.00 | 0.00 | 32 | 1016.1 |
| 20260502205018 | 10 | 270 | 4.8 | 12.9 | 0.00 | 0.00 | 0.00 | 34 | 1016.1 |
| 20260502204446 | 10 | 248 | 3.2 | 12.9 | 0.00 | 0.00 | 0.00 | 35 | 1016.3 |
| 20260502203916 | 10 | 292 | 4.8 | 12.9 | 0.00 | 0.00 | 0.00 | 30 | 1016.2 |
| 20260502203416 | 10 | 225 | 3.2 | 12.9 | 0.00 | 0.00 | 0.00 | 33 | 1016.3 |
| 20260502202916 | 10 | 248 | 4.8 | 17.7 | 0.00 | 0.00 | 0.00 | 33 | 1016.3 |
| 20260502202346 | 10 | 248 | 4.8 | 11.3 | 0.00 | 0.00 | 0.00 | 31 | 1016.5 |
| 20260502201845 | 10 | 248 | 4.8 | 17.7 | 0.00 | 0.00 | 0.00 | 31 | 1016.5 |
| 20260502201315 | 10 | 225 | 4.8 | 11.3 | 0.00 | 0.00 | 0.00 | 32 | 1016.5 |
| 20260502200815 | 10 | 225 | 6.4 | 19.3 | 0.00 | 0.00 | 0.00 | 31 | 1016.5 |
| 20260502200315 | 10 | 225 | 9.7 | 16.1 | 0.00 | 0.00 | 0.00 | 30 | 1016.6 |
| 20260502195745 | 10 | 248 | 6.4 | 12.9 | 0.00 | 0.00 | 0.00 | 29 | 1016.6 |
| 20260502195245 | 10 | 270 | 4.8 | 9.7 | 0.00 | 0.00 | 0.00 | 31 | 1016.8 |
| 20260502194745 | 10 | 248 | 4.8 | 11.3 | 0.00 | 0.00 | 0.00 | 32 | 1016.8 |
| 20260502194215 | 10 | 225 | 6.4 | 17.7 | 0.00 | 0.00 | 0.00 | 30 | 1017.0 |
| 20260502193715 | 10 | 292 | 4.8 | 12.9 | 0.00 | 0.00 | 0.00 | 31 | 1017.0 |
| 20260502193145 | 10 | 225 | 4.8 | 11.3 | 0.00 | 0.00 | 0.00 | 35 | 1017.0 |
| 20260502192645 | 10 | 315 | 4.8 | 9.7 | 0.00 | 0.00 | 0.00 | 33 | 1017.0 |
| 20260502192144 | 10 | 225 | 6.4 | 12.9 | 0.00 | 0.00 | 0.00 | 33 | 1016.9 |
| 20260502191614 | 10 | 248 | 4.8 | 17.7 | 0.00 | 0.00 | 0.00 | 31 | 1016.9 |
| 20260502191115 | 10 | 315 | 3.2 | 12.9 | 0.00 | 0.00 | 0.00 | 31 | 1017.0 |
| 20260502190614 | 10 | 225 | 8.0 | 16.1 | 0.00 | 0.00 | 0.00 | 30 | 1017.0 |
| 20260502190044 | 10 | 248 | 4.8 | 19.3 | 0.00 | 0.00 | 0.00 | 32 | 1017.0 |
| 20260502185514 | 10 | 225 | 8.0 | 17.7 | 0.00 | 0.00 | 0.00 | 29 | 1017.2 |
| 20260502185015 | 10 | 248 | 4.8 | 11.3 | 0.00 | 0.00 | 0.00 | 33 | 1017.2 |
| 20260502184444 | 10 | 225 | 6.4 | 14.5 | 0.00 | 0.00 | 0.00 | 30 | 1017.2 |
| 20260502183913 | 10 | 225 | 4.8 | 14.5 | 0.00 | 0.00 | 0.00 | 30 | 1017.3 |
| 20260502183413 | 10 | 248 | 4.8 | 11.3 | 0.00 | 0.00 | 0.00 | 30 | 1017.3 |
| 20260502182913 | 10 | 292 | 3.2 | 8.0 | 0.00 | 0.00 | 0.00 | 34 | 1017.3 |
| 20260502182343 | 10 | 270 | 3.2 | 6.4 | 0.00 | 0.00 | 0.00 | 32 | 1017.3 |
| 20260502181843 | 10 | 270 | 3.2 | 12.9 | 0.00 | 0.00 | 0.00 | 33 | 1017.3 |
| 20260502181343 | 10 | 315 | 3.2 | 11.3 | 0.00 | 0.00 | 0.00 | 31 | 1017.3 |
| 20260502180813 | 9 | 158 | 3.2 | 9.7 | 0.00 | 0.00 | 0.00 | 31 | 1017.3 |
| 20260502180313 | 10 | 225 | 3.2 | 8.0 | 0.00 | 0.00 | 0.00 | 33 | 1017.4 |
| 20260502163911 | 8 | 45 | 1.6 | 6.4 | 0.00 | 0.00 | 0.00 | 38 | 1018.2 |
| 20260502163341 | 8 | 45 | 3.2 | 11.3 | 0.00 | 0.00 | 0.00 | 39 | 1018.2 |
| 20260502162811 | 8 | 270 | 1.6 | 9.7 | 0.00 | 0.00 | 0.00 | 40 | 1018.3 |
| 20260502162311 | 8 | 292 | 3.2 | 9.7 | 0.00 | 0.00 | 0.00 | 40 | 1018.2 |
| 20260502161811 | 8 | 270 | 3.2 | 9.7 | 0.00 | 0.00 | 0.00 | 40 | 1018.3 |
| 20260502161241 | 8 | 68 | 3.2 | 6.4 | 0.00 | 0.00 | 0.00 | 39 | 1018.5 |
| 20260502160741 | 8 | 292 | 3.2 | 6.4 | 0.00 | 0.00 | 0.00 | 40 | 1018.5 |
| 20260502160210 | 8 | 68 | 1.6 | 6.4 | 0.00 | 0.00 | 0.00 | 38 | 1018.5 |
| 20260502151940 | 7 | 270 | 4.8 | 11.3 | 0.00 | 0.00 | 0.00 | 43 | 1018.7 |
| 20260502151440 | 7 | 270 | 4.8 | 9.7 | 0.00 | 0.00 | 0.00 | 42 | 1018.7 |
| 20260502150940 | 7 | 68 | 3.2 | 8.0 | 0.00 | 0.00 | 0.00 | 43 | 1018.6 |
| 20260502150410 | 7 | 270 | 3.2 | 9.7 | 0.00 | 0.00 | 0.00 | 43 | 1018.7 |
| 20260502130407 | 3 | 292 | 1.6 | 6.4 | 0.00 | 0.00 | 0.00 | 55 | 1019.4 |
| 20260502123807 | 2 | 0 | 0.0 | 3.2 | 0.00 | 0.00 | 0.00 | 68 | 1019.3 |
| 20260502123307 | 2 | 248 | 1.6 | 4.8 | 0.00 | 0.00 | 0.00 | 71 | 1019.3 |
| 20260502122736 | 2 | 248 | 1.6 | 3.2 | 0.00 | 0.00 | 0.00 | 73 | 1019.4 |
| 20260502122236 | 1 | 248 | 1.6 | 3.2 | 0.00 | 0.00 | 0.00 | 74 | 1019.4 |
| 20260502121707 | 1 | 248 | 1.6 | 4.8 | 0.00 | 0.00 | 0.00 | 75 | 1019.3 |
| 20260502121206 | 1 | 248 | 3.2 | 6.4 | 0.00 | 0.00 | 0.00 | 76 | 1019.4 |
| 20260502120636 | 1 | 248 | 1.6 | 3.2 | 0.00 | 0.00 | 0.00 | 77 | 1019.5 |
| 20260502120107 | 1 | 248 | 1.6 | 3.2 | 0.00 | 0.00 | 0.00 | 78 | 1019.5 |
| 20260502115536 | 0 | 248 | 1.6 | 3.2 | 0.00 | 0.00 | 0.00 | 78 | 1019.5 |
| 20260502115036 | 0 | 248 | 1.6 | 3.2 | 0.00 | 0.00 | 0.00 | 79 | 1019.5 |
| 20260502114536 | 0 | 0 | 0.0 | 1.6 | 0.00 | 0.00 | 0.00 | 80 | 1019.6 |
| 20260502114036 | 0 | 0 | 0.0 | 1.6 | 0.00 | 0.00 | 0.00 | 83 | 1019.4 |
| 20260502113505 | 0 | 0 | 0.0 | 1.6 | 0.00 | 0.00 | 0.00 | 84 | 1019.3 |
| 20260502113005 | -1 | 0 | 0.0 | 1.6 | 0.00 | 0.00 | 0.00 | 84 | 1019.3 |
| 20260502112435 | -1 | 0 | 0.0 | 1.6 | 0.00 | 0.00 | 0.00 | 84 | 1019.4 |
| 20260502111905 | -1 | 0 | 0.0 | 3.2 | 0.00 | 0.00 | 0.00 | 84 | 1019.3 |
| 20260502111405 | -1 | 248 | 1.6 | 3.2 | 0.00 | 0.00 | 0.00 | 85 | 1019.3 |
| 20260502110905 | -2 | 0 | 0.0 | 1.6 | 0.00 | 0.00 | 0.00 | 85 | 1019.3 |
| 20260502110405 | -2 | 0 | 0.0 | 1.6 | 0.00 | 0.00 | 0.00 | 85 | 1019.3 |
| 20260502105835 | -2 | 0 | 0.0 | 0.0 | 0.00 | 0.00 | 0.00 | 85 | 1019.4 |
| 20260502104804 | -2 | 0 | 0.0 | 0.0 | 0.00 | 0.00 | 0.00 | 84 | 1019.3 |
| 20260502104234 | -2 | 0 | 0.0 | 0.0 | 0.00 | 0.00 | 0.00 | 84 | 1019.3 |
| 20260502103734 | -1 | 0 | 0.0 | 0.0 | 0.00 | 0.00 | 0.00 | 84 | 1019.4 |
| 20260502103204 | -1 | 0 | 0.0 | 1.6 | 0.00 | 0.00 | 0.00 | 84 | 1019.3 |
| 20260502102704 | -1 | 0 | 0.0 | 3.2 | 0.00 | 0.00 | 0.00 | 85 | 1019.3 |
| 20260502102204 | -1 | 248 | 1.6 | 3.2 | 0.00 | 0.00 | 0.00 | 85 | 1019.1 |
| 20260502101634 | -1 | 0 | 0.0 | 1.6 | 0.00 | 0.00 | 0.00 | 86 | 1019.1 |
| 20260502101134 | -2 | 0 | 0.0 | 1.6 | 0.00 | 0.00 | 0.00 | 86 | 1019.1 |
| 20260502100604 | -2 | 0 | 0.0 | 1.6 | 0.00 | 0.00 | 0.00 | 87 | 1019.2 |
| 20260502100104 | -2 | 0 | 0.0 | 1.6 | 0.00 | 0.00 | 0.00 | 88 | 1019.2 |
| 20260502091402 | -2 | 0 | 0.0 | 0.0 | 0.00 | 0.00 | 0.00 | 87 | 1018.8 |
| 20260502090902 | -2 | 0 | 0.0 | 0.0 | 0.00 | 0.00 | 0.00 | 87 | 1018.8 |
| 20260502090402 | -1 | 0 | 0.0 | 0.0 | 0.00 | 0.00 | 0.00 | 86 | 1018.7 |
| 20260502071430 | -1 | 0 | 0.0 | 0.0 | 0.00 | 0.00 | 0.00 | 87 | 1018.7 |
| 20260502070900 | -1 | 0 | 0.0 | 0.0 | 0.00 | 0.00 | 0.00 | 88 | 1018.6 |
| 20260502070400 | -1 | 0 | 0.0 | 0.0 | 0.00 | 0.00 | 0.00 | 88 | 1018.6 |
| 20260502065902 | -1 | 0 | 0.0 | 1.6 | 0.00 | 0.00 | 0.00 | 88 | 1018.6 |
| 20260502065330 | -1 | 0 | 0.0 | 0.0 | 0.00 | 0.00 | 0.00 | 88 | 1018.6 |
| 20260502064830 | -1 | 0 | 0.0 | 0.0 | 0.00 | 0.00 | 0.00 | 88 | 1018.6 |
| 20260502064330 | -1 | 0 | 0.0 | 0.0 | 0.00 | 0.00 | 0.00 | 88 | 1018.6 |
| 20260502063759 | -1 | 0 | 0.0 | 0.0 | 0.00 | 0.00 | 0.00 | 89 | 1018.7 |
| 20260502063300 | -1 | 0 | 0.0 | 0.0 | 0.00 | 0.00 | 0.00 | 89 | 1018.7 |
| 20260502062729 | -1 | 0 | 0.0 | 0.0 | 0.00 | 0.00 | 0.00 | 89 | 1018.7 |
| 20260502062229 | -1 | 0 | 0.0 | 0.0 | 0.00 | 0.00 | 0.00 | 89 | 1018.7 |
| 20260502061659 | -1 | 0 | 0.0 | 0.0 | 0.00 | 0.00 | 0.00 | 89 | 1018.7 |
| 20260502061159 | -1 | 0 | 0.0 | 0.0 | 0.00 | 0.00 | 0.00 | 88 | 1018.7 |
| 20260502060629 | -1 | 0 | 0.0 | 0.0 | 0.00 | 0.00 | 0.00 | 89 | 1018.6 |
| 20260502060059 | -1 | 0 | 0.0 | 0.0 | 0.00 | 0.00 | 0.00 | 88 | 1018.7 |
| 20260502055559 | -1 | 0 | 0.0 | 0.0 | 0.00 | 0.00 | 0.00 | 88 | 1018.7 |
| 20260502055029 | -1 | 0 | 0.0 | 0.0 | 0.00 | 0.00 | 0.00 | 87 | 1018.8 |
| 20260502054501 | -1 | 0 | 0.0 | 0.0 | 0.00 | 0.00 | 0.00 | 87 | 1018.7 |
| 20260502053958 | -1 | 0 | 0.0 | 0.0 | 0.00 | 0.00 | 0.00 | 86 | 1018.7 |
| 20260502053458 | -1 | 0 | 0.0 | 0.0 | 0.00 | 0.00 | 0.00 | 86 | 1018.7 |
| 20260502052928 | 0 | 0 | 0.0 | 0.0 | 0.00 | 0.00 | 0.00 | 86 | 1018.7 |
| 20260502052358 | 0 | 0 | 0.0 | 0.0 | 0.00 | 0.00 | 0.00 | 85 | 1018.7 |
| 20260502051858 | 0 | 0 | 0.0 | 0.0 | 0.00 | 0.00 | 0.00 | 85 | 1018.7 |
| 20260502051328 | 0 | 0 | 0.0 | 0.0 | 0.00 | 0.00 | 0.00 | 85 | 1018.7 |
| 20260502050758 | 0 | 0 | 0.0 | 0.0 | 0.00 | 0.00 | 0.00 | 85 | 1018.7 |
| 20260502050259 | 0 | 0 | 0.0 | 0.0 | 0.00 | 0.00 | 0.00 | 84 | 1018.7 |
| 20260502045757 | 0 | 0 | 0.0 | 0.0 | 0.00 | 0.00 | 0.00 | 84 | 1018.7 |
| 20260502045227 | 0 | 0 | 0.0 | 0.0 | 0.00 | 0.00 | 0.00 | 83 | 1018.6 |
| 20260502044727 | 0 | 0 | 0.0 | 0.0 | 0.00 | 0.00 | 0.00 | 82 | 1018.6 |
| 20260502044227 | 0 | 0 | 0.0 | 0.0 | 0.00 | 0.00 | 0.00 | 82 | 1018.6 |
| 20260502043657 | 0 | 0 | 0.0 | 0.0 | 0.00 | 0.00 | 0.00 | 81 | 1018.7 |
| 20260502043158 | 0 | 0 | 0.0 | 0.0 | 0.00 | 0.00 | 0.00 | 81 | 1018.7 |
| 20260502042657 | 1 | 0 | 0.0 | 0.0 | 0.00 | 0.00 | 0.00 | 80 | 1018.7 |
| 20260502042127 | 1 | 0 | 0.0 | 0.0 | 0.00 | 0.00 | 0.00 | 79 | 1018.7 |
| 20260502041556 | 1 | 0 | 0.0 | 1.6 | 0.00 | 0.00 | 0.00 | 79 | 1018.5 |
| 20260502041057 | 1 | 0 | 0.0 | 1.6 | 0.00 | 0.00 | 0.00 | 79 | 1018.5 |
| 20260502040526 | 1 | 0 | 0.0 | 3.2 | 0.00 | 0.00 | 0.00 | 79 | 1018.6 |
| 20260502035956 | 1 | 0 | 0.0 | 1.6 | 0.00 | 0.00 | 0.00 | 78 | 1018.5 |
| 20260502035456 | 1 | 0 | 0.0 | 3.2 | 0.00 | 0.00 | 0.00 | 78 | 1018.6 |
| 20260502034956 | 1 | 0 | 0.0 | 1.6 | 0.00 | 0.00 | 0.00 | 78 | 1018.7 |
| 20260502034426 | 1 | 0 | 0.0 | 1.6 | 0.00 | 0.00 | 0.00 | 78 | 1018.8 |
| 20260502033856 | 2 | 0 | 0.0 | 0.0 | 0.00 | 0.00 | 0.00 | 76 | 1018.7 |
| 20260502033355 | 2 | 0 | 0.0 | 3.2 | 0.00 | 0.00 | 0.00 | 76 | 1018.7 |
| 20260502032856 | 2 | 0 | 0.0 | 3.2 | 0.00 | 0.00 | 0.00 | 76 | 1018.8 |
| 20260502032325 | 2 | 0 | 0.0 | 1.6 | 0.00 | 0.00 | 0.00 | 76 | 1018.7 |
| 20260502031755 | 2 | 0 | 0.0 | 3.2 | 0.00 | 0.00 | 0.00 | 76 | 1018.7 |
| 20260502031255 | 2 | 0 | 0.0 | 1.6 | 0.00 | 0.00 | 0.00 | 76 | 1018.7 |
| 20260502030725 | 2 | 0 | 0.0 | 1.6 | 0.00 | 0.00 | 0.00 | 75 | 1018.7 |
| 20260502030155 | 2 | 0 | 0.0 | 1.6 | 0.00 | 0.00 | 0.00 | 75 | 1018.8 |
| 20260502025655 | 2 | 0 | 0.0 | 4.8 | 0.00 | 0.00 | 0.00 | 75 | 1018.7 |
| 20260502024625 | 2 | 0 | 0.0 | 1.6 | 0.00 | 0.00 | 0.00 | 75 | 1018.7 |
| 20260502024125 | 2 | 0 | 0.0 | 3.2 | 0.00 | 0.00 | 0.00 | 75 | 1018.7 |
| 20260502023555 | 2 | 0 | 0.0 | 1.6 | 0.00 | 0.00 | 0.00 | 74 | 1018.8 |
| 20260502023054 | 2 | 0 | 0.0 | 3.2 | 0.00 | 0.00 | 0.00 | 73 | 1018.9 |
| 20260502022524 | 3 | 0 | 0.0 | 3.2 | 0.00 | 0.00 | 0.00 | 73 | 1018.9 |
| 20260502021954 | 3 | 225 | 1.6 | 6.4 | 0.00 | 0.00 | 0.00 | 72 | 1018.9 |
| 20260502021454 | 3 | 225 | 1.6 | 9.7 | 0.00 | 0.00 | 0.00 | 72 | 1018.9 |
| 20260502020924 | 3 | 270 | 1.6 | 8.0 | 0.00 | 0.00 | 0.00 | 72 | 1018.9 |
| 20260502020424 | 3 | 248 | 1.6 | 4.8 | 0.00 | 0.00 | 0.00 | 72 | 1018.8 |
| 20260502015854 | 3 | 225 | 1.6 | 4.8 | 0.00 | 0.00 | 0.00 | 72 | 1018.8 |
| 20260502015354 | 3 | 225 | 1.6 | 4.8 | 0.00 | 0.00 | 0.00 | 71 | 1018.7 |
| 20260502014823 | 3 | 0 | 0.0 | 1.6 | 0.00 | 0.00 | 0.00 | 71 | 1018.6 |
| 20260502014323 | 3 | 0 | 0.0 | 3.2 | 0.00 | 0.00 | 0.00 | 71 | 1018.7 |
| 20260502013753 | 3 | 225 | 1.6 | 4.8 | 0.00 | 0.00 | 0.00 | 71 | 1018.6 |
| 20260502013253 | 3 | 292 | 1.6 | 6.4 | 0.00 | 0.00 | 0.00 | 71 | 1018.6 |
| 20260502012723 | 3 | 292 | 1.6 | 4.8 | 0.00 | 0.00 | 0.00 | 71 | 1018.5 |
| 20260502012153 | 3 | 248 | 1.6 | 4.8 | 0.00 | 0.00 | 0.00 | 71 | 1018.5 |
| 20260502011653 | 3 | 225 | 3.2 | 11.3 | 0.00 | 0.00 | 0.00 | 70 | 1018.5 |
| 20260502011123 | 3 | 248 | 3.2 | 8.0 | 0.00 | 0.00 | 0.00 | 70 | 1018.4 |
| 20260502010553 | 3 | 248 | 1.6 | 8.0 | 0.00 | 0.00 | 0.00 | 69 | 1018.4 |
| 20260502010053 | 3 | 225 | 3.2 | 6.4 | 0.00 | 0.00 | 0.00 | 69 | 1018.3 |